Previsão horária em Barlovo

Hoje, 23 Julho, Sexta-feira

Tempo Temperatura Precipitação Vento Pressão Humidade
00:00 +14°C° 0 mm 2 m/s 741 mmHg 71%
01:00 +15°C° 0 mm 2 m/s 741 mmHg 71%
02:00 +14°C° 0 mm 3 m/s 740 mmHg 71%
03:00 +14°C° 0 mm 3 m/s 740 mmHg 75%
04:00 +13°C° 0 mm 3 m/s 740 mmHg 79%
05:00 +13°C° 0 mm 3 m/s 740 mmHg 83%
06:00 +14°C° 0 mm 3 m/s 740 mmHg 76%
07:00 +17°C° 0 mm 3 m/s 740 mmHg 70%
08:00 +19°C° 0 mm 4 m/s 740 mmHg 61%
09:00 +20°C° 0 mm 4 m/s 740 mmHg 56%
10:00 +21°C° 0 mm 5 m/s 740 mmHg 52%
11:00 +21°C° 0 mm 5 m/s 739 mmHg 48%
12:00 +22°C° 0 mm 5 m/s 739 mmHg 46%
13:00 +22°C° 0 mm 5 m/s 739 mmHg 44%
14:00 +22°C° 0 mm 5 m/s 739 mmHg 43%
15:00 +22°C° 0 mm 5 m/s 740 mmHg 45%
16:00 +21°C° 0 mm 4 m/s 740 mmHg 46%
17:00 +21°C° 0 mm 4 m/s 740 mmHg 47%
18:00 +19°C° 0 mm 3 m/s 740 mmHg 55%
19:00 +17°C° 0 mm 2 m/s 740 mmHg 62%
20:00 +16°C° 0 mm 1 m/s 741 mmHg 70%
21:00 +15°C° 0 mm 1 m/s 741 mmHg 72%
22:00 +15°C° 0 mm 1 m/s 741 mmHg 74%
23:00 +14°C° 0 mm 1 m/s 741 mmHg 76%

Amanhã, 24 Julho, Sábado

Tempo Temperatura Precipitação Vento Pressão Humidade
00:00 +14°C° 0 mm 1 m/s 742 mmHg 77%
01:00 +13°C° 0 mm 1 m/s 742 mmHg 78%
02:00 +13°C° 0 mm 1 m/s 742 mmHg 80%
03:00 +13°C° 0 mm 1 m/s 742 mmHg 80%
04:00 +13°C° 0 mm 1 m/s 743 mmHg 81%
05:00 +13°C° 0 mm 1 m/s 743 mmHg 81%
06:00 +15°C° 0 mm 1 m/s 743 mmHg 72%
07:00 +16°C° 0 mm 1 m/s 743 mmHg 63%
08:00 +19°C° 0 mm 1 m/s 744 mmHg 54%
09:00 +20°C° 0 mm 1 m/s 744 mmHg 48%
10:00 +21°C° 0 mm 1 m/s 744 mmHg 43%
11:00 +22°C° 0 mm 1 m/s 744 mmHg 38%
12:00 +22°C° 0 mm 1 m/s 744 mmHg 38%
13:00 +22°C° 0 mm 1 m/s 744 mmHg 38%
14:00 +22°C° 0 mm 1 m/s 745 mmHg 38%
15:00 +22°C° 0 mm 1 m/s 745 mmHg 40%
16:00 +21°C° 0 mm 2 m/s 745 mmHg 41%
17:00 +21°C° 0 mm 2 m/s 745 mmHg 42%
18:00 +21°C° 0 mm 1 m/s 745 mmHg 49%
19:00 +19°C° 0 mm 1 m/s 745 mmHg 55%
20:00 +16°C° 0 mm 1 m/s 746 mmHg 61%
21:00 +16°C° 0 mm 1 m/s 746 mmHg 60%
22:00 +15°C° 0 mm 0 m/s 746 mmHg 58%
23:00 +15°C° 0 mm 0 m/s 746 mmHg 57%

Depois de amanhã, 25 Julho, Domingo

Tempo Temperatura Precipitação Vento Pressão Humidade
00:00 +14°C° 0 mm 0 m/s 747 mmHg 60%
01:00 +14°C° 0 mm 0 m/s 747 mmHg 63%
02:00 +13°C° 0 mm 0 m/s 747 mmHg 66%
03:00 +13°C° 0 mm 0 m/s 747 mmHg 67%
04:00 +14°C° 0 mm 1 m/s 747 mmHg 69%
05:00 +14°C° 0 mm 1 m/s 747 mmHg 70%
06:00 +16°C° 0 mm 1 m/s 748 mmHg 63%
07:00 +17°C° 0 mm 0 m/s 748 mmHg 56%
08:00 +19°C° 0 mm 0 m/s 748 mmHg 49%
09:00 +21°C° 0 mm 0 m/s 748 mmHg 44%
10:00 +22°C° 0 mm 0 m/s 748 mmHg 40%
11:00 +24°C° 0 mm 0 m/s 748 mmHg 36%
12:00 +26°C° 0 mm 1 m/s 748 mmHg 35%
13:00 +27°C° 0 mm 1 m/s 748 mmHg 33%
14:00 +27°C° 0 mm 1 m/s 748 mmHg 32%
15:00 +26°C° 0 mm 1 m/s 748 mmHg 37%
16:00 +25°C° 0 mm 1 m/s 748 mmHg 42%
17:00 +24°C° 0 mm 1 m/s 748 mmHg 47%
18:00 +23°C° 0 mm 1 m/s 748 mmHg 51%
19:00 +21°C° 0 mm 1 m/s 748 mmHg 55%
20:00 +18°C° 0 mm 0 m/s 748 mmHg 59%
21:00 +19°C° 0 mm 1 m/s 749 mmHg 60%
22:00 +19°C° 0 mm 1 m/s 749 mmHg 61%
23:00 +18°C° 0 mm 1 m/s 749 mmHg 62%

26 Julho, Segunda-feira

Tempo Temperatura Precipitação Vento Pressão Humidade
00:00 +18°C° 0 mm 1 m/s 749 mmHg 64%
01:00 +16°C° 0 mm 1 m/s 749 mmHg 66%
02:00 +16°C° 0 mm 1 m/s 749 mmHg 69%
03:00 +16°C° 0 mm 1 m/s 749 mmHg 71%
04:00 +16°C° 0 mm 1 m/s 750 mmHg 73%
05:00 +16°C° 0 mm 1 m/s 750 mmHg 75%
06:00 +19°C° 0 mm 1 m/s 750 mmHg 68%
07:00 +21°C° 0 mm 1 m/s 750 mmHg 61%
08:00 +24°C° 0 mm 2 m/s 750 mmHg 54%
09:00 +25°C° 0 mm 2 m/s 750 mmHg 49%
10:00 +26°C° 0 mm 2 m/s 750 mmHg 45%
11:00 +27°C° 0 mm 2 m/s 750 mmHg 40%
12:00 +27°C° 0 mm 1 m/s 750 mmHg 41%
13:00 +27°C° 0 mm 1 m/s 750 mmHg 41%
14:00 +27°C° 0 mm 1 m/s 750 mmHg 42%
15:00 +27°C° 0 mm 1 m/s 750 mmHg 44%
16:00 +26°C° 0 mm 1 m/s 750 mmHg 46%
17:00 +26°C° 0 mm 1 m/s 750 mmHg 48%
18:00 +25°C° 0 mm 1 m/s 750 mmHg 54%
19:00 +23°C° 0 mm 2 m/s 750 mmHg 59%
20:00 +21°C° 0 mm 2 m/s 750 mmHg 64%
21:00 +20°C° 0 mm 2 m/s 750 mmHg 66%
22:00 +20°C° 0 mm 2 m/s 750 mmHg 68%
23:00 +19°C° 0 mm 2 m/s 750 mmHg 71%

27 Julho, Terça-feira

Tempo Temperatura Precipitação Vento Pressão Humidade
00:00 +19°C° 0 mm 2 m/s 750 mmHg 73%
01:00 +19°C° 0 mm 1 m/s 750 mmHg 76%
02:00 +19°C° 0 mm 1 m/s 750 mmHg 78%
03:00 +19°C° 0 mm 1 m/s 750 mmHg 80%
04:00 +18°C° 0 mm 1 m/s 750 mmHg 82%
05:00 +18°C° 0 mm 1 m/s 750 mmHg 83%
06:00 +20°C° 0 mm 1 m/s 750 mmHg 75%
07:00 +21°C° 0 mm 2 m/s 750 mmHg 68%
08:00 +24°C° 0 mm 2 m/s 750 mmHg 60%
09:00 +26°C° 0 mm 2 m/s 750 mmHg 54%
10:00 +27°C° 0 mm 2 m/s 750 mmHg 48%
11:00 +29°C° 0 mm 3 m/s 750 mmHg 43%
12:00 +28°C° 0 mm 3 m/s 749 mmHg 47%
13:00 +27°C° 0 mm 2 m/s 749 mmHg 51%
14:00 +26°C° 0 mm 2 m/s 749 mmHg 56%
15:00 +26°C° 0 mm 2 m/s 748 mmHg 56%
16:00 +26°C° 0 mm 2 m/s 748 mmHg 56%
17:00 +26°C° 0 mm 2 m/s 748 mmHg 56%
18:00 +25°C° 0 mm 2 m/s 748 mmHg 61%
19:00 +24°C° 0 mm 2 m/s 748 mmHg 65%
20:00 +23°C° 0 mm 2 m/s 747 mmHg 70%
21:00 +21°C° 0 mm 2 m/s 747 mmHg 70%
22:00 +21°C° 0 mm 2 m/s 747 mmHg 69%
23:00 +20°C° 0 mm 2 m/s 747 mmHg 69%

28 Julho, Quarta-feira

Tempo Temperatura Precipitação Vento Pressão Humidade
00:00 +20°C° 0 mm 2 m/s 747 mmHg 69%
01:00 +20°C° 0 mm 3 m/s 746 mmHg 68%
02:00 +20°C° 0 mm 3 m/s 746 mmHg 68%
03:00 +20°C° 0 mm 3 m/s 746 mmHg 68%
04:00 +19°C° 0 mm 3 m/s 746 mmHg 68%
05:00 +19°C° 0 mm 3 m/s 745 mmHg 68%
06:00 +21°C° 0 mm 3 m/s 745 mmHg 64%
07:00 +22°C° 0 mm 4 m/s 744 mmHg 59%
08:00 +25°C° 0 mm 5 m/s 744 mmHg 55%
09:00 +25°C° 0 mm 5 m/s 744 mmHg 54%
10:00 +26°C° 0 mm 5 m/s 743 mmHg 54%
11:00 +26°C° 0 mm 5 m/s 743 mmHg 53%
12:00 +27°C° 0 mm 5 m/s 743 mmHg 54%
13:00 +27°C° 0 mm 5 m/s 742 mmHg 55%
14:00 +27°C° 0 mm 5 m/s 742 mmHg 55%
15:00 +25°C° 0.2 mm 5 m/s 741 mmHg 65%
16:00 +22°C° 0.2 mm 4 m/s 741 mmHg 74%
17:00 +20°C° 0.2 mm 4 m/s 741 mmHg 83%
18:00 +20°C° 0.2 mm 4 m/s 740 mmHg 83%
19:00 +20°C° 0.2 mm 4 m/s 739 mmHg 84%
20:00 +20°C° 0.2 mm 4 m/s 738 mmHg 84%
21:00 +19°C° 1 mm 4 m/s 738 mmHg 89%
22:00 +19°C° 1 mm 4 m/s 737 mmHg 93%
23:00 +18°C° 1 mm 3 m/s 737 mmHg 97%
Mostrar mais